Location: ?????
(44.4284°N, 135.2222°E)
Time: 15:10:21
(UTC+00:00)

Cosmos 1908 Rocket - Pass Details

Date: 19 May 2025
Orbit: 599 x 626 km, 82.5° (Epoch: 20 June)

Event Time Altitude Azimuth Distance (km) Brightness Sun altitude
Rises 18:35:50 0° 343° (NNW) 2,861 7.3 -8.4°
Reaches altitude 10° 18:38:11 10° 335° (NNW) 1,951 6.3 -8.1°
Maximum altitude 18:42:07 36° 269° (W) 962 4.2 -7.5°
Drops below altitude 10° 18:46:02 10° 203° (SSW) 1,937 5.6 -6.9°
Enters shadow 18:47:52 - 195° (SSW) 2,647 6.3 -6.7°
